[[{"header":{"parameterUnit":"m.s-1","parameterCategory":1,"la1":30.2991,"la2":30.254,"lo1":-89.0895,"lo2":-89.0444,"dy":0.0017,"dx":0.0017,"nx":28,"ny":28,"refTime":"2024-06-04T09:00:00:Z","depth":0,"parameterNumber":2,"parameterNumberName":"U-component_of_WINDS"},"data":[0,0,0,0,0,0,0,0,0,0,0,0,0,0,0,0,0,0,0,0,0,0,0,0,0,0,0,0,0,0,0,0,0,0,0,0,0,0,0,0,0,0,0,0,0,0,0,0,0,0,0,0,0,0,0,0,0,0,-0.8385,-0.8385,0,-0.8343,-0.8343,-0.8342,-0.8336,-0.8336,-0.8337,-0.8337,-0.8294,-0.8293,-0.8291,0,0,0,0,0,0,0,0,0,0,0,0,0,-0.8463,-0.8461,-0.8385,-0.8385,-0.8384,-0.8343,-0.8343,-0.8342,-0.8336,-0.8336,-0.8337,-0.8337,-0.8295,-0.8293,-0.8291,0,0,0,0,0,0,0,0,0,0,0,0,0,-0.8426,-0.8461,-0.8386,-0.8376,-0.8375,-0.8343,-0.8343,-0.8342,-0.8336,-0.8336,-0.8337,-0.8337,-0.8295,-0.8293,-0.8291,-0.8266,0,0,-0.8284,-0.8283,0,0,0,0,0,0,0,0,-0.8428,-0.8423,-0.8378,-0.8377,-0.8375,-0.8345,-0.8354,-0.8317,-0.8335,-0.8351,-0.8337,-0.8338,-0.8311,-0.8307,-0.8298,-0.8264,-0.8262,-0.8284,-0.8283,-0.8282,-0.8281,0,0,0,0,0,0,0,-0.843,-0.8425,-0.8369,-0.8377,-0.8376,-0.8375,-0.837,-0.8347,-0.8328,-0.8349,-0.8349,-0.8344,-0.831,-0.83,-0.8297,-0.8262,-0.8284,-0.8282,-0.8281,-0.828,-0.8207,-0.8206,0,0,0,0,0,0,-0.8434,-0.8427,-0.837,-0.8367,-0.8403,-0.8373,-0.8368,-0.8354,-0.8328,-0.8325,-0.8343,-0.8344,-0.8304,-0.83,-0.8296,-0.8266,-0.8282,-0.828,-0.8278,-0.8208,-0.8207,-0.8206,0,0,0,0,0,0,-0.8436,-0.8429,-0.8372,-0.8397,-0.839,-0.8371,-0.8356,-0.8353,-0.8343,-0.8324,-0.8321,-0.8337,-0.8304,-0.8299,-0.8274,-0.8264,-0.8279,-0.8277,-0.8208,-0.8207,-0.8206,-0.8205,0,0,0,0,0,0,-0.8438,-0.843,-0.842,-0.8397,-0.8388,-0.835,-0.8355,-0.8352,-0.834,-0.834,-0.8317,-0.8313,-0.8304,-0.8277,-0.8272,-0.8261,-0.8275,-0.8209,-0.8208,-0.8207,-0.8206,-0.8204,-0.8203,0,0,0,0,0,-0.8441,-0.8421,-0.8419,-0.8412,-0.8375,-0.8349,-0.8345,-0.8334,-0.8339,-0.8329,-0.8317,-0.8314,-0.8266,-0.8275,-0.8268,-0.8257,-0.821,-0.8208,-0.8207,-0.8207,-0.8205,-0.8203,0,0,0,0,0,0,-0.8442,-0.8417,-0.8415,-0.8387,-0.837,-0.8348,-0.8335,-0.8332,-0.8314,-0.8315,-0.8303,-0.8298,-0.8274,-0.8263,-0.8273,-0.8233,-0.8238,-0.8236,-0.824,-0.8238,-0.8237,-0.824,-0.8273,0,0,0,0,0,-0.844,-0.842,-0.84,-0.8377,-0.8369,-0.8353,-0.8342,-0.8336,-0.8318,-0.8311,-0.8297,-0.828,-0.8262,-0.8249,-0.8231,-0.8205,-0.82,-0.8194,-0.8193,-0.8192,-0.8189,-0.8176,-0.8173,-0.8202,-0.8202,-0.8202,0,0,-0.8433,-0.8417,-0.8406,-0.8377,-0.8363,-0.8344,-0.8347,-0.8327,-0.8313,-0.8308,-0.8284,-0.8273,-0.8254,-0.8228,-0.8217,-0.8219,-0.8181,-0.819,-0.8189,-0.8187,-0.8174,-0.8172,-0.8169,-0.8201,-0.8201,-0.8201,0,0,-0.8412,-0.8397,-0.8377,-0.8364,-0.8344,-0.8334,-0.8329,-0.8308,-0.8301,-0.8276,-0.8272,-0.8257,-0.8224,-0.8211,-0.82,-0.8177,-0.8174,-0.8171,-0.8163,-0.815,-0.8148,-0.8146,-0.8138,-0.8136,-0.8169,-0.8169,-0.8169,0,-0.8406,-0.8377,-0.8367,-0.8348,-0.8336,-0.833,-0.8311,-0.8298,-0.8273,-0.8265,-0.8268,-0.8229,-0.8216,-0.8188,-0.8182,-0.8174,-0.8169,-0.8173,-0.8149,-0.8147,-0.8145,-0.8138,-0.8135,-0.8169,-0.8169,-0.8169,-0.8169,0,-0.8373,-0.8353,-0.8339,-0.8315,-0.8302,-0.8282,-0.827,-0.8258,-0.8253,-0.8244,-0.822,-0.8204,-0.8183,-0.8176,-0.8171,-0.8148,-0.815,-0.8151,-0.8157,-0.8142,-0.8135,-0.8132,-0.8169,-0.8169,-0.8169,-0.8169,0,0,-0.8349,-0.8322,-0.8317,-0.8307,-0.8285,-0.827,-0.8251,-0.823,-0.8221,-0.8204,-0.8188,-0.8162,-0.8164,-0.8152,-0.8146,-0.8134,-0.8118,-0.8137,-0.8136,-0.8134,-0.8093,-0.8092,-0.8089,-0.8117,-0.8116,-0.8116,-0.8095,0,-0.8326,-0.8291,-0.8282,-0.8253,-0.8236,-0.8231,-0.8215,-0.8201,-0.8192,-0.8176,-0.8167,-0.8149,-0.8151,-0.8144,-0.8133,-0.8122,-0.811,-0.8124,-0.8103,-0.8102,-0.8107,-0.8085,-0.8084,-0.8065,-0.8092,-0.8091,-0.8091,0,-0.8293,-0.8277,-0.8246,-0.8228,-0.822,-0.8205,-0.8187,-0.8172,-0.8156,-0.8151,-0.8138,-0.8133,-0.8115,-0.8122,-0.8096,-0.8106,-0.8097,-0.8091,-0.809,-0.8087,-0.8095,-0.8082,-0.8058,-0.8056,-0.8086,-0.8087,-0.8087,0,-0.8281,-0.825,-0.8228,-0.822,-0.8198,-0.8188,-0.8179,-0.8163,-0.8152,-0.8137,-0.813,-0.8112,-0.8102,-0.8089,-0.8081,-0.8086,-0.8056,-0.8062,-0.8052,-0.8052,-0.8045,-0.8046,-0.802,-0.8039,-0.8039,-0.804,-0.804,0,-0.8255,-0.8237,-0.8222,-0.8209,-0.8188,-0.8179,-0.816,-0.815,-0.8137,-0.8122,-0.8118,-0.8104,-0.8094,-0.8079,-0.8072,-0.8053,-0.8049,-0.8044,-0.8043,-0.8044,-0.8045,-0.8038,-0.8039,-0.8039,-0.8039,-0.8039,-0.8039,0,-0.8237,-0.8227,-0.8202,-0.8184,-0.818,-0.8165,-0.815,-0.8138,-0.813,-0.8111,-0.8106,-0.8093,-0.8076,-0.8066,-0.8044,-0.804,-0.8019,-0.8018,-0.8024,-0.8023,-0.8014,-0.8015,-0.7982,-0.7978,-0.8,-0.8,-0.8,0,-0.8222,-0.8207,-0.8188,-0.8178,-0.8168,-0.8152,-0.8141,-0.8132,-0.8121,-0.8103,-0.8093,-0.8075,-0.8061,-0.8034,-0.8023,-0.8007,-0.8005,-0.7995,-0.8003,-0.8006,-0.8006,-0.8007,-0.8006,-0.7994,-0.7993,-0.7993,-0.7993,0,-0.8195,-0.8191,-0.8175,-0.8158,-0.8145,-0.8131,-0.8118,-0.811,-0.8099,-0.8087,-0.8069,-0.8058,-0.8037,-0.802,-0.8003,-0.7994,-0.7992,-0.7991,-0.7988,-0.7989,-0.7994,-0.7992,-0.802,-0.7992,-0.7992,-0.7992,-0.7992,-0.7992,-0.8178,-0.8166,-0.8151,-0.8134,-0.8123,-0.811,-0.8098,-0.8089,-0.8074,-0.8055,-0.8051,-0.8033,-0.8019,-0.7997,-0.7988,-0.7974,-0.7976,-0.7971,-0.797,-0.7969,-0.7969,-0.7996,-0.7971,-0.7971,-0.7971,-0.7971,-0.7971,0,-0.8152,-0.8143,-0.8127,-0.8109,-0.8096,-0.8095,-0.808,-0.807,-0.8054,-0.8041,-0.8027,-0.8008,-0.7992,-0.798,-0.7964,-0.7956,-0.7955,-0.7952,-0.7952,-0.7951,-0.7968,-0.7972,-0.7953,-0.7953,-0.7953,-0.7953,-0.7953,-0.7953,-0.8137,-0.8117,-0.8111,-0.8086,-0.8077,-0.8059,-0.805,-0.804,-0.8029,-0.8008,-0.7995,-0.7987,-0.7976,-0.7959,-0.7945,-0.7942,-0.7937,-0.7934,-0.7931,-0.7947,-0.7949,-0.7951,-0.7955,-0.7933,-0.7933,-0.7915,-0.7915,-0.7915]},{"header":{"parameterUnit":"m.s-1","parameterCategory":1,"la1":30.2991,"la2":30.254,"lo1":-89.0895,"lo2":-89.0444,"dy":0.0017,"dx":0.0017,"nx":28,"ny":28,"refTime":"2024-06-04T09:00:00:Z","depth":0,"parameterNumber":3,"parameterNumberName":"V-component_of_WINDS"},"data":[0,0,0,0,0,0,0,0,0,0,0,0,0,0,0,0,0,0,0,0,0,0,0,0,0,0,0,0,0,0,0,0,0,0,0,0,0,0,0,0,0,0,0,0,0,0,0,0,0,0,0,0,0,0,0,0,0,0,6.6768,6.6769,0,6.6842,6.6843,6.6843,6.6783,6.6781,6.6778,6.6776,6.6846,6.6851,6.6855,0,0,0,0,0,0,0,0,0,0,0,0,0,6.6569,6.6573,6.6768,6.6769,6.677,6.6842,6.6843,6.6844,6.6784,6.678,6.6777,6.6774,6.6845,6.685,6.6855,0,0,0,0,0,0,0,0,0,0,0,0,0,6.665,6.6574,6.6768,6.6749,6.6748,6.6841,6.6843,6.6844,6.6784,6.678,6.6777,6.6773,6.6843,6.685,6.6856,6.6971,0,0,6.6875,6.6878,0,0,0,0,0,0,0,0,6.6646,6.6658,6.675,6.675,6.6749,6.6799,6.6798,6.6886,6.6785,6.677,6.6776,6.6771,6.6834,6.684,6.6862,6.6974,6.6977,6.6876,6.688,6.6882,6.6884,0,0,0,0,0,0,0,6.664,6.6654,6.6797,6.6752,6.6751,6.6734,6.6742,6.6815,6.6822,6.6771,6.6767,6.6777,6.6832,6.6857,6.6864,6.6978,6.6876,6.6881,6.6885,6.6888,6.7186,6.719,0,0,0,0,0,0,6.6637,6.665,6.6795,6.6799,6.6687,6.6741,6.6749,6.6787,6.6821,6.6823,6.678,6.6774,6.6847,6.6856,6.6866,6.7002,6.6882,6.6888,6.6892,6.7182,6.7187,6.7191,0,0,0,0,0,0,6.6633,6.6651,6.6792,6.6723,6.674,6.6748,6.6791,6.679,6.6815,6.6828,6.6828,6.6804,6.6845,6.6857,6.6945,6.7003,6.6891,6.6897,6.7177,6.7183,6.7189,6.7275,0,0,0,0,0,0,6.6628,6.665,6.6695,6.6725,6.6744,6.6872,6.6795,6.6795,6.6826,6.6819,6.685,6.6852,6.6843,6.6936,6.6952,6.701,6.6902,6.7172,6.718,6.7187,6.7267,6.7284,6.7298,0,0,0,0,0,6.6621,6.6716,6.6698,6.6716,6.6801,6.6875,6.6886,6.6875,6.6831,6.6876,6.6884,6.6851,6.6995,6.6946,6.6962,6.7024,6.7168,6.7178,6.7186,6.726,6.728,6.7297,0,0,0,0,0,0,6.6691,6.6719,6.67,6.6808,6.684,6.6865,6.6921,6.6897,6.6941,6.6932,6.6915,6.6923,6.7015,6.7028,6.6973,6.7136,6.7074,6.7087,6.7124,6.7144,6.7158,6.7153,6.6907,0,0,0,0,0,6.672,6.6779,6.68,6.6893,6.691,6.6913,6.6945,6.6934,6.6966,6.6978,6.6993,6.7024,6.7076,6.711,6.7159,6.7269,6.7274,6.7319,6.7334,6.7347,6.7358,6.7415,6.7435,6.7222,6.7221,6.7221,0,0,6.6778,6.6801,6.6839,6.6907,6.6931,6.6991,6.6925,6.6991,6.7035,6.6988,6.7072,6.7084,6.7117,6.7216,6.7261,6.723,6.7418,6.7358,6.7368,6.7373,6.7427,6.7447,6.7465,6.7228,6.7227,6.7226,0,0,6.6916,6.694,6.7019,6.7044,6.7081,6.7082,6.7101,6.713,6.7137,6.7221,6.7187,6.7237,6.7328,6.7352,6.7377,6.7522,6.7492,6.7538,6.7617,6.7673,6.769,6.7705,6.7755,6.7774,6.7549,6.7549,6.755,0,6.6984,6.7075,6.7063,6.7132,6.7162,6.7123,6.7202,6.7226,6.7277,6.7297,6.7263,6.7374,6.7394,6.7497,6.7533,6.7554,6.7574,6.7534,6.7689,6.7704,6.7717,6.7765,6.7784,6.7555,6.7554,6.7554,6.7553,0,6.7156,6.7219,6.7279,6.733,6.7366,6.744,6.7437,6.7475,6.746,6.7464,6.755,6.7572,6.7624,6.7647,6.7633,6.7749,6.7728,6.7692,6.7629,6.7743,6.7788,6.7806,6.7562,6.756,6.7559,6.7557,0,0,6.7341,6.7384,6.7405,6.7427,6.7464,6.7512,6.7583,6.7635,6.7667,6.7702,6.776,6.7837,6.7803,6.7831,6.7819,6.7868,6.798,6.7825,6.7825,6.7852,6.8106,6.8133,6.8155,6.796,6.7964,6.7967,6.8103,0,6.7479,6.7605,6.7595,6.7713,6.777,6.7733,6.7794,6.7823,6.7828,6.7876,6.788,6.7935,6.7886,6.7903,6.795,6.7956,6.8031,6.7946,6.8012,6.8015,6.8005,6.8179,6.8208,6.8336,6.8121,6.8124,6.8126,0,6.7659,6.7701,6.7825,6.7852,6.7876,6.7932,6.7977,6.8024,6.8054,6.8054,6.8085,6.8064,6.8133,6.8069,6.8163,6.8106,6.8131,6.8139,6.8143,6.8149,6.8077,6.8188,6.8376,6.8395,6.8154,6.8151,6.8149,0,6.778,6.7868,6.7953,6.7973,6.8007,6.8047,6.8063,6.8089,6.812,6.816,6.8179,6.8226,6.8251,6.8286,6.8278,6.8232,6.8373,6.8308,6.8373,6.8374,6.8405,6.8403,6.8599,6.8423,6.8422,6.8422,6.8422,0,6.7936,6.8013,6.8008,6.8061,6.8145,6.8132,6.8215,6.8225,6.8249,6.8301,6.8271,6.832,6.8306,6.8354,6.8347,6.8425,6.8436,6.8437,6.8434,6.844,6.844,6.8456,6.8447,6.8427,6.8426,6.8425,6.8424,0,6.8086,6.8086,6.8177,6.8201,6.8209,6.827,6.829,6.8338,6.834,6.8406,6.8421,6.8424,6.8479,6.8473,6.8534,6.853,6.8626,6.8613,6.8616,6.8613,6.8678,6.8672,6.8892,6.8919,6.8726,6.8728,6.8729,0,6.8185,6.8244,6.8275,6.8308,6.8327,6.8381,6.8412,6.8401,6.8435,6.8473,6.8516,6.8568,6.8609,6.8697,6.8704,6.875,6.8737,6.8811,6.8743,6.8746,6.8737,6.8733,6.8738,6.8824,6.8826,6.8828,6.8829,0,6.8361,6.8358,6.8406,6.8454,6.8493,6.853,6.8563,6.8591,6.8582,6.8622,6.8678,6.871,6.8772,6.8823,6.8866,6.888,6.8853,6.885,6.8868,6.8873,6.8873,6.8873,6.8652,6.8845,6.8844,6.8843,6.8842,6.8841,6.8488,6.8538,6.8567,6.8621,6.8645,6.8676,6.8722,6.873,6.8777,6.8828,6.8818,6.888,6.8906,6.8962,6.898,6.9027,6.9,6.9025,6.9032,6.9038,6.9045,6.8866,6.9035,6.9034,6.9034,6.9034,6.9033,0,6.8662,6.8679,6.8728,6.8776,6.8818,6.879,6.8824,6.886,6.8917,6.8944,6.8985,6.9048,6.9097,6.9108,6.9154,6.919,6.9178,6.9202,6.9199,6.9202,6.9067,6.9047,6.921,6.921,6.921,6.921,6.921,6.921,6.8757,6.8839,6.8839,6.8932,6.8947,6.9009,6.9031,6.9059,6.9081,6.9153,6.9195,6.9201,6.9221,6.9268,6.9311,6.9313,6.9331,6.936,6.9356,6.923,6.9212,6.9195,6.9176,6.9364,6.9364,6.9487,6.9488,6.9489]}]]